Location: Malvern Link
(52.1333°N, 2.3000°W)
Time: 09:03:17
(UTC+00:00)

Cosmos 1634 Rocket - Pass Details

Date: 03 December 2021
Orbit: 959 x 993 km, 82.9° (Epoch: 24 January)

Event Time Altitude Azimuth Distance (km) Brightness Sun altitude
Rises 20:44:47 0° 263° (W) 3,709 7.7 -42.4°
Reaches altitude 10° 20:49:59 10° 300° (WNW) 2,766 7.0 -43.1°
Maximum altitude 20:51:27 11° 313° (NW) 2,708 6.8 -43.3°
Drops below altitude 10° 20:52:56 10° 327° (NNW) 2,768 6.8 -43.6°
Sets 20:58:10 0° 3° (N) 3,717 7.2 -44.3°
